Stations météo

réclame
Mon MeteoGroup
Threave, Grande-Bretagne (99090): Température de l'air & dewpoint: 10.08.2018 09:00:00 - 16.08.2018 09:00:00 (BST)Threave, Grande-Bretagne (99090): Température de l'air -20cm & Température de l'air -100cm: 10.08.2018 09:00:00 - 16.08.2018 09:00:00 (BST)Threave, Grande-Bretagne (99090): Quantités de précipitations: 10.08.2018 09:00:00 - 16.08.2018 09:00:00 (BST)
Date & Time tt [°C] td [°C] tt -20cm [°C] tt -100cm [°C] rr [mm]
16.08.2018 09:00:00 - - - - -
16.08.2018 08:00:00 11,7 10,5 - - 0,0
16.08.2018 07:00:00 10,1 9,6 - - 0,0
16.08.2018 06:00:00 9,9 8,7 - - 0,0
16.08.2018 05:00:00 11,0 9,0 - - 0,0
16.08.2018 04:00:00 12,4 10,7 - - 0,0
16.08.2018 03:00:00 13,8 12,7 - - 0,2
16.08.2018 02:00:00 14,2 12,6 - - 0,0
16.08.2018 01:00:00 15,1 13,4 - - 0,0
16.08.2018 00:00:00 15,0 14,0 - - 0,0
15.08.2018 23:00:00 15,5 14,5 - - 0,0
15.08.2018 22:00:00 15,8 15,2 - - 0,8
15.08.2018 21:00:00 16,2 15,6 - - 0,8
15.08.2018 20:00:00 16,7 16,1 - - 0,8
15.08.2018 19:00:00 16,6 16,0 - - 1,0
15.08.2018 18:00:00 17,0 16,2 - - 0,8
15.08.2018 17:00:00 17,3 16,4 - - 0,2
15.08.2018 16:00:00 18,5 15,9 - - 0,0
15.08.2018 15:00:00 19,3 16,3 - - 0,0
15.08.2018 14:00:00 19,1 16,5 - - 0,0
15.08.2018 13:00:00 18,4 16,3 - - 0,0
15.08.2018 12:00:00 16,9 15,8 - - 0,0
15.08.2018 11:00:00 17,0 15,9 - - 0,2
15.08.2018 10:00:00 17,6 15,8 17,5 15,7 0,0
15.08.2018 09:00:00 16,9 15,2 - - 0,0
15.08.2018 08:00:00 16,5 15,1 - - 0,0
15.08.2018 07:00:00 16,1 14,9 - - 0,0
15.08.2018 06:00:00 16,0 14,9 - - 0,0
15.08.2018 05:00:00 16,1 14,9 - - 0,0
15.08.2018 04:00:00 15,9 14,8 - - 0,0
15.08.2018 03:00:00 15,8 15,0 - - 0,0
15.08.2018 02:00:00 16,0 15,6 - - 0,8
15.08.2018 01:00:00 16,1 15,8 - - 1,6
15.08.2018 00:00:00 16,1 15,7 - - 1,6
14.08.2018 23:00:00 16,2 15,7 - - 0,2
14.08.2018 22:00:00 16,2 15,4 - - 0,0
14.08.2018 21:00:00 16,3 15,6 - - 0,0
14.08.2018 20:00:00 16,4 15,8 - - 0,0
14.08.2018 19:00:00 16,7 15,6 - - 0,0
14.08.2018 18:00:00 16,8 15,6 - - 0,2
14.08.2018 17:00:00 17,1 15,3 - - 0,0
14.08.2018 16:00:00 17,5 15,4 - - 0,0
14.08.2018 15:00:00 17,4 15,8 - - 0,0
14.08.2018 14:00:00 16,2 15,0 - - 0,0
14.08.2018 13:00:00 16,0 14,7 - - 0,0
14.08.2018 12:00:00 16,5 14,6 - - 0,0
14.08.2018 11:00:00 16,4 14,8 - - 0,0
14.08.2018 10:00:00 15,3 14,6 17,7 15,7 0,2
14.08.2018 09:00:00 15,3 14,0 - - 0,0
14.08.2018 08:00:00 15,0 13,7 - - 0,0
14.08.2018 07:00:00 14,3 13,2 - - 0,0
14.08.2018 06:00:00 14,2 13,0 - - 0,0
14.08.2018 05:00:00 14,2 13,0 - - 0,0
14.08.2018 04:00:00 13,9 12,6 - - 0,0
14.08.2018 03:00:00 14,1 11,9 - - 0,0
14.08.2018 02:00:00 14,4 12,2 - - 0,0
14.08.2018 01:00:00 14,6 11,7 - - 0,0
14.08.2018 00:00:00 14,6 12,3 - - 0,0
13.08.2018 23:00:00 15,0 11,7 - - 0,0
13.08.2018 22:00:00 15,4 12,2 - - 0,0
13.08.2018 21:00:00 15,9 12,5 - - 0,0
13.08.2018 20:00:00 16,8 13,6 - - 0,0
13.08.2018 19:00:00 17,7 14,2 - - 0,0
13.08.2018 18:00:00 18,6 14,5 - - 0,0
13.08.2018 17:00:00 20,3 14,8 - - 0,0
13.08.2018 16:00:00 20,5 14,9 - - 0,0
13.08.2018 15:00:00 19,8 15,5 - - 0,0
13.08.2018 14:00:00 21,4 16,5 - - 0,0
13.08.2018 13:00:00 21,0 16,3 - - 0,0
13.08.2018 12:00:00 20,1 16,0 - - 0,0
13.08.2018 11:00:00 18,5 16,3 - - 0,0
13.08.2018 10:00:00 17,2 16,1 17,2 15,7 0,0
13.08.2018 09:00:00 17,3 16,6 - - 0,0
13.08.2018 08:00:00 16,4 16,1 - - 0,0
13.08.2018 07:00:00 15,9 15,6 - - 0,0
13.08.2018 06:00:00 15,7 15,5 - - 0,2
13.08.2018 05:00:00 15,7 15,4 - - 0,0
13.08.2018 04:00:00 15,6 15,3 - - 0,0
13.08.2018 03:00:00 15,5 15,1 - - 0,0
13.08.2018 02:00:00 15,4 15,0 - - 0,0
13.08.2018 01:00:00 15,7 15,3 - - 0,2
13.08.2018 00:00:00 15,8 15,3 - - 1,2
12.08.2018 23:00:00 16,1 15,7 - - 1,6
12.08.2018 22:00:00 16,4 15,7 - - 0,0
12.08.2018 21:00:00 16,4 15,6 - - 1,6
12.08.2018 20:00:00 16,8 15,5 - - 2,8
12.08.2018 19:00:00 18,3 15,8 - - 0,0
12.08.2018 18:00:00 18,6 15,2 - - 0,0
12.08.2018 17:00:00 18,5 15,1 - - 0,0
12.08.2018 16:00:00 19,2 15,0 - - 0,0
12.08.2018 15:00:00 18,5 15,3 - - 0,0
12.08.2018 14:00:00 18,1 15,4 - - 0,0
12.08.2018 13:00:00 18,0 15,8 - - 0,0
12.08.2018 12:00:00 16,7 15,2 - - 0,0
12.08.2018 11:00:00 16,2 15,5 - - 0,0
12.08.2018 10:00:00 16,1 15,7 17,0 15,7 0,0
12.08.2018 09:00:00 16,3 16,1 - - 1,4
12.08.2018 08:00:00 16,4 16,2 - - 1,0
12.08.2018 07:00:00 16,1 15,9 - - 1,4
12.08.2018 06:00:00 15,2 15,0 - - 0,8
12.08.2018 05:00:00 14,9 14,6 - - 0,8
12.08.2018 04:00:00 14,7 14,4 - - 1,0
12.08.2018 03:00:00 14,5 14,2 - - 0,8
12.08.2018 02:00:00 14,5 14,2 - - 0,4
12.08.2018 01:00:00 14,0 13,7 - - 0,6
12.08.2018 00:00:00 13,7 13,2 - - 0,4
11.08.2018 23:00:00 14,1 13,5 - - 1,4
11.08.2018 22:00:00 14,3 13,2 - - 0,0
11.08.2018 21:00:00 15,1 13,3 - - 0,0
11.08.2018 20:00:00 16,9 11,0 - - 0,0
11.08.2018 19:00:00 17,2 10,5 - - 0,0
11.08.2018 18:00:00 16,9 8,2 - - 0,0
11.08.2018 17:00:00 17,5 8,3 - - 0,0
11.08.2018 16:00:00 17,1 9,5 - - 0,0
11.08.2018 15:00:00 16,9 10,1 - - 0,0
11.08.2018 14:00:00 16,9 11,0 - - 0,0
11.08.2018 13:00:00 17,0 10,8 - - 0,0
11.08.2018 12:00:00 16,5 11,7 - - 0,0
11.08.2018 11:00:00 15,7 10,6 - - 0,0
11.08.2018 10:00:00 13,7 11,0 16,9 15,7 0,0
11.08.2018 09:00:00 10,4 10,3 - - 0,0
11.08.2018 08:00:00 6,8 6,6 - - 0,0
11.08.2018 07:00:00 5,3 5,0 - - 0,0
11.08.2018 06:00:00 5,4 5,1 - - 0,0
11.08.2018 05:00:00 5,6 5,2 - - 0,0
11.08.2018 04:00:00 6,3 5,8 - - 0,0
11.08.2018 03:00:00 7,1 6,3 - - 0,0
11.08.2018 02:00:00 8,2 6,7 - - 0,0
11.08.2018 01:00:00 8,8 7,2 - - 0,0
11.08.2018 00:00:00 9,1 7,7 - - 0,0
10.08.2018 23:00:00 10,6 8,1 - - 0,0
10.08.2018 22:00:00 10,9 7,8 - - 0,0
10.08.2018 21:00:00 12,9 8,1 - - 0,0
10.08.2018 20:00:00 14,7 8,8 - - 0,0
10.08.2018 19:00:00 16,2 8,8 - - 0,0
10.08.2018 18:00:00 16,6 9,3 - - 0,0
10.08.2018 17:00:00 16,9 9,2 - - 0,0
10.08.2018 16:00:00 16,7 8,4 - - 0,0
10.08.2018 15:00:00 15,7 8,8 - - 0,0
10.08.2018 14:00:00 15,3 10,8 - - 0,0
10.08.2018 13:00:00 12,4 9,7 - - 1,8
10.08.2018 12:00:00 12,6 10,0 - - 1,2
10.08.2018 11:00:00 13,0 9,4 - - 0,0
10.08.2018 10:00:00 13,5 10,5 17,2 15,7 0,0
10.08.2018 09:00:00 12,2 10,4 - - 0,0

tt = Température de l'air
td = dewpoint
tt -20cm = Température de l'air -20cm
tt -100cm = Température de l'air -100cm
rr = Quantités de précipitations

stations d'obs. à proximité